KN4RPA Weather Reports


time (UTC)temp
C
wind
direction
speed
KPH
gust
KPH
rain 1hr
cm
rain 24hr
cm
rain mn
cm
humidity
%
barometer
mb
20260504190018 23 169 0.0 14.5 0.00 0.00 0.00 28 1010.0
20260504184526 23 156 0.0 4.8 0.00 0.00 0.00 26 1010.2
20260504183007 24 180 0.0 9.7 0.00 0.00 0.00 26 1010.6
20260504181505 23 162 0.0 9.7 0.00 0.00 0.00 26 1010.8
20260504180004 23 164 0.0 11.3 0.00 0.00 0.00 26 1011.0
20260504174503 23 157 0.0 14.5 0.00 0.00 0.00 26 1011.1
20260504173002 23 157 0.0 4.8 0.00 0.00 0.00 27 1011.2
20260504171601 22 155 0.0 4.8 0.00 0.00 0.00 27 1011.6
20260504081527 8 43 0.0 1.6 0.00 0.00 0.00 62 1014.6
20260504050013 8 43 0.0 0.0 0.00 0.00 0.00 66 1014.6
20260504044514 8 43 0.0 0.0 0.00 0.00 0.00 65 1014.6
20260504043013 8 43 0.0 0.0 0.00 0.00 0.00 65 1014.4
20260504041511 7 43 0.0 0.0 0.00 0.00 0.00 64 1014.4
20260504040010 7 43 0.0 0.0 0.00 0.00 0.00 62 1014.3
20260504034517 7 43 0.0 0.0 0.00 0.00 0.00 60 1014.3
20260504033009 8 43 0.0 0.0 0.00 0.00 0.00 58 1014.3
20260504031509 8 43 0.0 0.0 0.00 0.00 0.00 56 1014.4
20260504030008 8 43 0.0 0.0 0.00 0.00 0.00 55 1014.5
20260504024509 8 43 0.0 0.0 0.00 0.00 0.00 53 1014.2
20260504023007 9 42 0.0 0.0 0.00 0.00 0.00 52 1014.3
20260504021506 10 43 0.0 0.0 0.00 0.00 0.00 50 1014.4
20260504020007 10 43 0.0 0.0 0.00 0.00 0.00 49 1014.1
20260504014507 10 43 0.0 0.0 0.00 0.00 0.00 48 1014.2
20260504013005 10 43 0.0 0.0 0.00 0.00 0.00 47 1014.1
20260504011504 11 43 0.0 0.0 0.00 0.00 0.00 46 1013.9
20260504010003 11 43 0.0 0.0 0.00 0.00 0.00 45 1013.9
20260504004506 12 43 0.0 0.0 0.00 0.00 0.00 41 1013.6
20260504003003 13 43 0.0 0.0 0.00 0.00 0.00 39 1013.5
20260504001502 13 42 0.0 0.0 0.00 0.00 0.00 36 1013.4
20260504000003 15 43 0.0 0.0 0.00 0.00 0.00 31 1013.4
20260503234501 15 43 0.0 0.0 0.00 0.00 0.00 28 1013.1
20260503233101 16 43 0.0 0.0 0.00 0.00 0.00 28 1013.1
20260503231559 16 43 0.0 0.0 0.00 0.00 0.00 28 1013.2
20260503224557 16 43 0.0 1.6 0.00 0.00 0.00 26 1013.2
20260503223056 16 42 0.0 9.7 0.00 0.00 0.00 25 1013.4
20260503221559 16 13 0.0 3.2 0.00 0.00 0.00 25 1013.2
20260503220055 16 52 0.0 11.3 0.00 0.00 0.00 24 1013.3
20260503214555 16 59 1.6 6.4 0.00 0.00 0.00 24 1013.3
20260503213054 16 57 0.0 9.7 0.00 0.00 0.00 24 1013.5
20260503211553 16 157 1.6 11.3 0.00 0.00 0.00 25 1013.2
20260503210053 16 73 0.0 4.8 0.00 0.00 0.00 24 1013.5
20260503204555 16 29 0.0 12.9 0.00 0.00 0.00 25 1013.4
20260503203051 16 69 0.0 9.7 0.00 0.00 0.00 26 1013.7
20260503201550 16 25 0.0 20.9 0.00 0.00 0.00 26 1013.7
20260503200049 16 322 0.0 6.4 0.00 0.00 0.00 26 1014.0
20260503194553 16 350 0.0 14.5 0.00 0.00 0.00 25 1014.3
20260503193050 16 76 0.0 4.8 0.00 0.00 0.00 25 1014.6
20260503191549 16 97 1.6 9.7 0.00 0.00 0.00 27 1014.8